Terug naar catalogus

KUIPER-00054

ActiefCommunicatieLEO
NORAD 64514·PAYLOAD·🇺🇸 United States

Gelanceerd Jun 23, 2025 vanaf Cape Canaveral Space Force Station

Loading…

Volgende Passages (komende 24 uur)

TLE

VersSource: CelesTrak SupGP

Epoch: Sep 14, 2026, 15:19 UTC

1 64514C 25134Q   26257.63824074 -.00003195  00000+0 -41828-3 0  2573
2 64514  51.8968 102.5083 0000959 108.4243 122.5086 14.79925760    18

Volg KUIPER-00054 in realtime met AllMySat

Download on the App Store